Regional Weather Roundup
Issued by NWS

Home | Current Version | Previous Version | Graphics & Text | Print | Product List | Glossary On
Versions: 1 2 3 4 5 6 7 8 9 10 11 12 13 14 15 16 17 18 19 20 21 22 23 24 25 26 27 28 29 30 31 32 33 34 35 36 37 38 39 40 41 42 43 44 45 46 47 48 49 50
000
ASUS45 KBOU 241207
RWRCO

WEATHER ROUNDUP FOR COLORADO
NATIONAL WEATHER SERVICE DENVER/BOULDER CO
600 AM MDT MON APR 24 2017

NOTE: "FAIR" INDICATES FEW OR NO CLOUDS BELOW 12000 FEET WITH NO
SIGNIFICANT WEATHER AND/OR OBSTRUCTIONS TO VISIBILITY.

COZ001>005-013-030-031-241300-
...NORTHWEST COLORADO...

CITY           SKY/WX    TMP DP  RH WIND       PRES   REMARKS
CRAIG          MOCLDY    38  35  89 CALM      29.83F
HAYDEN         MOCLDY    37  34  87 E3        29.84F
MEEKER         CLOUDY    41  39  93 SE3       29.83S
MOUNT WERNER   NOT AVBL
STEAMBOAT SPGS CLOUDY    37  35  94 S3        29.84S
WALDEN           N/A     34  32  93 W9        29.85S WCI  26
$$

COZ006>008-011-241300-
...WEST CENTRAL VALLEYS...

CITY           SKY/WX    TMP DP  RH WIND       PRES   REMARKS
GRAND JUNCTION FAIR      46  32  58 NE5       29.77S
MONTROSE       FAIR      48  28  46 E5        29.83S
EAGLE          MOCLDY    39  33  79 E6        29.85F
RIFLE          CLOUDY    48  35  60 CALM      29.80F
DELTA          FAIR      54  29  38 CALM      29.79S
NUCLA          FAIR      45  28  53 SE6       29.86F
$$

COZ017>023-064>068-241300-
...SOUTHWEST COLORADO...

CITY           SKY/WX    TMP DP  RH WIND       PRES   REMARKS
DURANGO        FAIR      36  21  54 N7        29.88S
CORTEZ         FAIR      37  25  61 E6        29.85S
PAGOSA SPRINGS FAIR      38  20  48 NE3       29.93S
TELLURIDE      MOCLDY    43  21  41 W5        29.97S
WOLF CREEK PAS FAIR      28  18  64 S10G18    30.09F WCI  19
$$

COZ009-010-012-014-032>034-037-058>063-241300-
...CENTRAL COLORADO...

CITY           SKY/WX    TMP DP  RH WIND       PRES   REMARKS
ASPEN          FAIR      37  36  96 CALM      29.85S
BUENA VISTA    FAIR      46  23  40 W17G28    29.82S
COPPER MTN     SNOW      32  23  69 W30G36    29.94F VSB 1/2 WCI  18
BERTHOUD PASS  LGT SNOW  23  12  63 NW39G52   29.89R WCI   3
COTTONWOOD PAS FAIR      43  21  42 W28G48    29.85F
GUNNISON       FAIR      39  29  67 N6        29.87F
KREMMLING      MIX PCPN  43  37  81 CALM      29.86R
LEADVILLE      FLURRIES  31  27  85 CALM      29.89S
MONARCH PASS   MOCLDY    30  23  74 W35G44    30.08S WCI  14
SALIDA         FAIR      51  24  35 CALM      29.88S
SUNLIGHT       FAIR      28  27  93 SW12G23   29.97F WCI  18
WILKERSON PASS FAIR      30  25  80 SW20G30   29.92F WCI  18
$$

COZ069>075-241300-
...SAN LUIS VALLEY/SANGRE DE CRISTO MOUNTAINS...

CITY           SKY/WX    TMP DP  RH WIND       PRES   REMARKS
ALAMOSA        FAIR      43  18  36 CALM      29.87R
LA VETA PASS   FAIR      37  18  44 S28G41    30.03R
SAGUACHE       FAIR      43  21  42 NW15      29.86S
$$

COZ035-036-038>040-241300-
...NORTHERN COLORADO FRONT RANGE...

CITY           SKY/WX    TMP DP  RH WIND       PRES   REMARKS
DENVER INTL AP MOCLDY    43  36  76 SE10      29.67F
DMNS CITY PARK   N/A     54  31  40 SE8G17    29.66S
AURORA         MOCLDY    47  35  63 SE12      29.69F
FRONT RANGE AP FAIR      48  36  61 SE5       29.69F
ERIE MUNI ARPT MOCLDY    55  32  41 S7        29.65R
BOULDER MUN AP FAIR      54  32  43 NE6       29.65R
CENTENNIAL     FAIR      47  33  58 S8        29.68F
BROOMFIELD     FAIR      54  32  43 NW13G36   29.67F
FORT COLLINS   FAIR      49  37  63 N8        29.66S
LONGMONT       FAIR      52  38  59 E10G17    29.67R
$$

COZ041-046-047-076>085-087-088-241300-
...PIKES PEAK/PALMER DIVIDE AND SOUTHERN FOOTHILLS...

CITY           SKY/WX    TMP DP  RH WIND       PRES   REMARKS
COLO. SPRINGS  FAIR      57  25  29 N10       29.71S
A. F. ACADEMY  FAIR      51  27  39 NE14      29.71F
SCHRIEVER AFB  FAIR      54  26  33 N16G25    29.72F
ELLICOTT       FAIR     N/A N/A N/A NE21G28   29.70F
FALCON         FAIR      45  27  49 NE8       29.77S
FORT CARSON    FAIR      56  21  25 E8        29.70R
LIMON          FAIR      48  37  65 N18       29.68S
MONUMENT HILL  FAIR      36  27  69 CALM      29.77S
TRINIDAD       FAIR      53  22  29 W6        29.74R
$$

COZ042>045-048>051-090-091-241300-
...NORTHEAST COLORADO...

CITY           SKY/WX    TMP DP  RH WIND       PRES   REMARKS
GREELEY ARPT   FAIR      49  38  65 NW7       29.66F
AKRON          MOCLDY    50  38  63 NW16      29.65R
BURLINGTON     NOT AVBL
WRAY           NOT AVBL
STERLING       FAIR      54  41  62 W9        29.64R
HOLYOKE        FAIR      52  41  66 NW14G23   29.59R
FORT MORGAN    CLOUDY    55  35  47 N22G29    29.65F
$$

COZ086-089-092>099-241300-
...SOUTHEAST COLORADO...

CITY           SKY/WX    TMP DP  RH WIND       PRES   REMARKS
PUEBLO         FAIR      50  36  58 NW13      29.66R
LA JUNTA       FAIR      56  34  43 SW16      29.63R
LAMAR          FAIR      56  35  45 SW18      29.55S
SPRINGFIELD      N/A     51  33  50 SW17      29.66S
$$



USA.gov is the U.S. government's official web portal to all federal, state and local government web resources and services.